IRIDIUM 137 (43076 NORAD) Tracking and Keplerian Element Data

This shows tracking and keplerian element data for the satellite.

Feedback or suggestion? Click here.




ElementValue
Catalog43076
NameIRIDIUM 137
Epoch Orbit11932
Epoch Day93.77832878
Epoch Year2020
RAAN189.1949
Inclination86.4043
Eccentricity0.0002145
Argument of Perigee84.8804
Mean Anonmoly275.2636
Mean Motion14.34218944
Decay Rate6.4E-07
L11 43076U 17083G 20093.77832878 .00000064 00000-0 15812-4 0 9994
L22 43076 86.4043 189.1949 0002145 84.8804 275.2636 14.34218944119329

Live tracking and technical data element details for IRIDIUM 137 (NORAD 43076). IRIDIUM 137 can be tracked NOW for your location showing map with azimuth and elevation plus other details from your city location.

Track the satellite on the map from your city or location and see movement details for azimuth, elevation, latitude, longitude, range, height, and movement on the map or in text.







IsCatalogInMostPopularTable: catalog: 43076, numindb: 440
Update: records affected: 1



GetName: 43076 IRIDIUM 137

Hit Count: updated at: Thu, 09 Apr 2020 16:54:24 GMT